| time (UTC) | temp C | wind direction | speed KPH | gust KPH | rain 1hr cm | rain 24hr cm | rain mn cm | humidity % | barometer mb |
| 20260508025906 | 17 | 255 | 0.0 | 1.6 | 0.00 | 0.00 | 0.00 | 61 | 1015.0 |
| 20260508025406 | 17 | 255 | 0.0 | 0.0 | 0.00 | 0.00 | 0.00 | 61 | 1015.1 |
| 20260508023905 | 18 | 255 | 0.0 | 1.6 | 0.00 | 0.00 | 0.00 | 62 | 1015.1 |
| 20260508023405 | 18 | 255 | 1.6 | 1.6 | 0.00 | 0.00 | 0.00 | 61 | 1015.1 |
| 20260508022905 | 18 | 257 | 0.0 | 3.2 | 0.00 | 0.00 | 0.00 | 62 | 1015.1 |
| 20260508022405 | 18 | 257 | 0.0 | 3.2 | 0.00 | 0.00 | 0.00 | 61 | 1015.1 |
| 20260508021905 | 18 | 257 | 0.0 | 3.2 | 0.00 | 0.00 | 0.00 | 61 | 1015.1 |
| 20260508021405 | 19 | 257 | 0.0 | 3.2 | 0.00 | 0.00 | 0.00 | 61 | 1015.1 |
| 20260508020905 | 19 | 256 | 1.6 | 3.2 | 0.00 | 0.00 | 0.00 | 60 | 1015.1 |
| 20260508020405 | 19 | 102 | 1.6 | 3.2 | 0.00 | 0.00 | 0.00 | 58 | 1015.1 |
| 20260508015905 | 20 | 103 | 3.2 | 3.2 | 0.00 | 0.00 | 0.00 | 59 | 1015.1 |
| 20260508015405 | 20 | 105 | 0.0 | 3.2 | 0.00 | 0.00 | 0.00 | 59 | 1015.1 |
| 20260508014905 | 20 | 79 | 0.0 | 4.8 | 0.00 | 0.00 | 0.00 | 57 | 1015.1 |
| 20260508014405 | 20 | 86 | 0.0 | 8.0 | 0.00 | 0.00 | 0.00 | 56 | 1015.1 |
| 20260508013905 | 20 | 96 | 0.0 | 8.0 | 0.00 | 0.00 | 0.00 | 56 | 1015.1 |
| 20260508013405 | 20 | 42 | 1.6 | 6.4 | 0.00 | 0.00 | 0.00 | 54 | 1015.1 |
| 20260508012905 | 20 | 31 | 4.8 | 6.4 | 0.00 | 0.00 | 0.00 | 55 | 1015.1 |
| 20260508012405 | 20 | 61 | 1.6 | 6.4 | 0.00 | 0.00 | 0.00 | 55 | 1015.5 |
| 20260508011905 | 20 | 22 | 0.0 | 8.0 | 0.00 | 0.00 | 0.00 | 55 | 1015.5 |
| 20260508010904 | 20 | 38 | 3.2 | 8.0 | 0.00 | 0.00 | 0.00 | 54 | 1015.5 |
| 20260508010404 | 20 | 61 | 3.2 | 8.0 | 0.00 | 0.00 | 0.00 | 55 | 1015.5 |
| 20260508005904 | 20 | 59 | 0.0 | 4.8 | 0.00 | 0.00 | 0.00 | 53 | 1015.5 |
| 20260508005404 | 20 | 58 | 0.0 | 4.8 | 0.00 | 0.00 | 0.00 | 54 | 1015.5 |
| 20260508004904 | 20 | 48 | 4.8 | 6.4 | 0.00 | 0.00 | 0.00 | 53 | 1015.5 |
| 20260508004404 | 20 | 38 | 4.8 | 8.0 | 0.00 | 0.00 | 0.00 | 52 | 1015.5 |
| 20260508003404 | 21 | 63 | 4.8 | 8.0 | 0.00 | 0.00 | 0.00 | 54 | 1015.5 |
| 20260507235404 | 21 | 71 | 4.8 | 8.0 | 0.00 | 0.00 | 0.00 | 52 | 1015.8 |
| 20260507234404 | 21 | 106 | 6.4 | 9.7 | 0.00 | 0.00 | 0.00 | 53 | 1015.8 |
| 20260507231904 | 20 | 62 | 4.8 | 6.4 | 0.00 | 0.00 | 0.00 | 52 | 1016.2 |
| 20260507230404 | 20 | 195 | 4.8 | 9.7 | 0.00 | 0.00 | 0.00 | 54 | 1016.3 |
| 20260507224904 | 20 | 5 | 3.2 | 9.7 | 0.00 | 0.00 | 0.00 | 53 | 1016.7 |
| 20260507224403 | 20 | 54 | 1.6 | 8.0 | 0.00 | 0.00 | 0.00 | 55 | 1016.7 |
| 20260507223903 | 20 | 127 | 3.2 | 6.4 | 0.00 | 0.00 | 0.00 | 55 | 1016.8 |
| 20260507223403 | 20 | 88 | 0.0 | 9.7 | 0.00 | 0.00 | 0.00 | 53 | 1016.8 |
| 20260507222903 | 20 | 129 | 0.0 | 9.7 | 0.00 | 0.00 | 0.00 | 54 | 1016.8 |
| 20260507222403 | 20 | 168 | 3.2 | 8.0 | 0.00 | 0.00 | 0.00 | 55 | 1017.0 |
| 20260507221903 | 20 | 117 | 4.8 | 9.7 | 0.00 | 0.00 | 0.00 | 55 | 1017.0 |
| 20260507221403 | 20 | 42 | 3.2 | 9.7 | 0.00 | 0.00 | 0.00 | 53 | 1017.0 |
| 20260507220903 | 20 | 170 | 0.0 | 8.0 | 0.00 | 0.00 | 0.00 | 56 | 1017.2 |
| 20260507220403 | 20 | 101 | 3.2 | 6.4 | 0.00 | 0.00 | 0.00 | 57 | 1017.2 |
| 20260507215904 | 20 | 175 | 3.2 | 8.0 | 0.00 | 0.00 | 0.00 | 56 | 1017.2 |
| 20260507215403 | 20 | 174 | 6.4 | 8.0 | 0.00 | 0.00 | 0.00 | 56 | 1017.5 |
| 20260507214434 | 19 | 130 | 1.6 | 11.3 | 0.00 | 0.00 | 0.00 | 56 | 1017.5 |
| 20260507213903 | 19 | 175 | 3.2 | 9.7 | 0.00 | 0.00 | 0.00 | 55 | 1017.6 |
| 20260507212905 | 18 | 58 | 1.6 | 8.0 | 0.00 | 0.00 | 0.00 | 56 | 1017.6 |
| 20260507212403 | 18 | 148 | 0.0 | 8.0 | 0.00 | 0.00 | 0.00 | 54 | 1017.8 |
| 20260507211904 | 18 | 126 | 3.2 | 8.0 | 0.00 | 0.00 | 0.00 | 56 | 1017.8 |
| 20260507211404 | 18 | 79 | 3.2 | 9.7 | 0.00 | 0.00 | 0.00 | 57 | 1017.8 |
| 20260507210903 | 18 | 106 | 1.6 | 11.3 | 0.00 | 0.00 | 0.00 | 55 | 1018.0 |
| 20260507210404 | 18 | 175 | 0.0 | 11.3 | 0.00 | 0.00 | 0.00 | 55 | 1018.0 |
| 20260507205934 | 18 | 187 | 0.0 | 11.3 | 0.00 | 0.00 | 0.00 | 55 | 1018.0 |
| 20260507205404 | 18 | 181 | 6.4 | 11.3 | 0.00 | 0.00 | 0.00 | 57 | 1018.2 |
| 20260507204903 | 18 | 142 | 4.8 | 9.7 | 0.00 | 0.00 | 0.00 | 56 | 1018.2 |
| 20260507204403 | 18 | 94 | 0.0 | 9.7 | 0.00 | 0.00 | 0.00 | 58 | 1018.2 |
| 20260507203903 | 18 | 130 | 8.0 | 9.7 | 0.00 | 0.00 | 0.00 | 60 | 1018.3 |
| 20260507203403 | 18 | 106 | 3.2 | 11.3 | 0.00 | 0.00 | 0.00 | 60 | 1018.3 |
| 20260507202903 | 18 | 80 | 1.6 | 11.3 | 0.00 | 0.00 | 0.00 | 58 | 1018.3 |
| 20260507202403 | 18 | 62 | 1.6 | 11.3 | 0.00 | 0.00 | 0.00 | 58 | 1018.5 |
| 20260507201903 | 18 | 191 | 6.4 | 9.7 | 0.00 | 0.00 | 0.00 | 59 | 1018.5 |
| 20260507201403 | 17 | 123 | 4.8 | 9.7 | 0.00 | 0.00 | 0.00 | 61 | 1018.5 |
| 20260507200903 | 17 | 207 | 6.4 | 12.9 | 0.00 | 0.00 | 0.00 | 59 | 1018.7 |
| 20260507200403 | 17 | 122 | 0.0 | 12.9 | 0.00 | 0.00 | 0.00 | 59 | 1018.7 |
| 20260507195933 | 17 | 142 | 6.4 | 9.7 | 0.00 | 0.00 | 0.00 | 59 | 1018.7 |
| 20260507195403 | 17 | 126 | 1.6 | 9.7 | 0.00 | 0.00 | 0.00 | 62 | 1018.8 |
| 20260507194903 | 17 | 86 | 4.8 | 11.3 | 0.00 | 0.00 | 0.00 | 61 | 1018.8 |
| 20260507194403 | 17 | 156 | 1.6 | 11.3 | 0.00 | 0.00 | 0.00 | 59 | 1018.8 |
| 20260507193903 | 17 | 59 | 6.4 | 8.0 | 0.00 | 0.00 | 0.00 | 61 | 1018.8 |
| 20260507193403 | 17 | 49 | 4.8 | 6.4 | 0.00 | 0.00 | 0.00 | 59 | 1018.8 |
| 20260507192903 | 17 | 71 | 3.2 | 11.3 | 0.00 | 0.00 | 0.00 | 61 | 1018.8 |
| 20260507192403 | 17 | 223 | 1.6 | 11.3 | 0.00 | 0.00 | 0.00 | 59 | 1019.0 |
| 20260507191902 | 17 | 63 | 0.0 | 9.7 | 0.00 | 0.00 | 0.00 | 60 | 1019.0 |
| 20260507191402 | 17 | 59 | 3.2 | 9.7 | 0.00 | 0.00 | 0.00 | 60 | 1019.0 |
| 20260507190902 | 17 | 113 | 1.6 | 8.0 | 0.00 | 0.00 | 0.00 | 60 | 1019.2 |
| 20260507190402 | 17 | 194 | 1.6 | 8.0 | 0.00 | 0.00 | 0.00 | 61 | 1019.2 |
| 20260507185932 | 16 | 208 | 6.4 | 8.0 | 0.00 | 0.00 | 0.00 | 60 | 1019.2 |
| 20260507185402 | 16 | 89 | 8.0 | 9.7 | 0.00 | 0.00 | 0.00 | 60 | 1019.3 |
| 20260507184902 | 16 | 231 | 1.6 | 9.7 | 0.00 | 0.00 | 0.00 | 60 | 1019.3 |
| 20260507184402 | 16 | 76 | 8.0 | 8.0 | 0.00 | 0.00 | 0.00 | 63 | 1019.3 |
| 20260507183902 | 16 | 155 | 3.2 | 8.0 | 0.00 | 0.00 | 0.00 | 64 | 1019.3 |
| 20260507183402 | 16 | 208 | 3.2 | 8.0 | 0.00 | 0.00 | 0.00 | 63 | 1019.3 |
| 20260507182903 | 15 | 115 | 1.6 | 11.3 | 0.00 | 0.00 | 0.00 | 65 | 1019.3 |
| 20260507182402 | 16 | 5 | 0.0 | 11.3 | 0.00 | 0.00 | 0.00 | 64 | 1019.4 |
| 20260507181902 | 16 | 137 | 4.8 | 6.4 | 0.00 | 0.00 | 0.00 | 63 | 1019.4 |
| 20260507181404 | 16 | 71 | 0.0 | 8.0 | 0.00 | 0.00 | 0.00 | 63 | 1019.4 |
| 20260507180432 | 16 | 107 | 6.4 | 8.0 | 0.00 | 0.00 | 0.00 | 65 | 1019.5 |
| 20260507175903 | 16 | 85 | 0.0 | 8.0 | 0.00 | 0.00 | 0.00 | 65 | 1019.5 |
| 20260507175432 | 16 | 163 | 1.6 | 6.4 | 0.00 | 0.00 | 0.00 | 64 | 1019.7 |
| 20260507174902 | 16 | 101 | 3.2 | 4.8 | 0.00 | 0.00 | 0.00 | 66 | 1019.7 |
| 20260507174402 | 16 | 43 | 0.0 | 8.0 | 0.00 | 0.00 | 0.00 | 69 | 1019.7 |
| 20260507173932 | 15 | 16 | 3.2 | 8.0 | 0.00 | 0.00 | 0.00 | 70 | 1019.7 |
| 20260507173432 | 15 | 122 | 3.2 | 8.0 | 0.00 | 0.00 | 0.00 | 68 | 1019.7 |
| 20260507172902 | 15 | 98 | 3.2 | 8.0 | 0.00 | 0.00 | 0.00 | 68 | 1019.7 |
| 20260507172402 | 15 | 22 | 1.6 | 8.0 | 0.00 | 0.00 | 0.00 | 68 | 1019.7 |
| 20260507171932 | 15 | 74 | 3.2 | 8.0 | 0.00 | 0.00 | 0.00 | 70 | 1019.7 |
| 20260507171402 | 15 | 48 | 3.2 | 8.0 | 0.00 | 0.00 | 0.00 | 71 | 1019.7 |
| 20260507170902 | 15 | 148 | 3.2 | 8.0 | 0.00 | 0.00 | 0.00 | 69 | 1019.7 |
| 20260507170402 | 15 | 91 | 1.6 | 4.8 | 0.00 | 0.00 | 0.00 | 71 | 1019.7 |
| 20260507164902 | 14 | 32 | 4.8 | 8.0 | 0.00 | 0.00 | 0.00 | 72 | 1019.7 |
| 20260507164402 | 14 | 38 | 8.0 | 8.0 | 0.00 | 0.00 | 0.00 | 72 | 1019.7 |
| 20260507163902 | 14 | 200 | 0.0 | 6.4 | 0.00 | 0.00 | 0.00 | 73 | 1019.8 |
| 20260507163402 | 14 | 143 | 0.0 | 8.0 | 0.00 | 0.00 | 0.00 | 73 | 1019.8 |
| 20260507162901 | 13 | 128 | 0.0 | 8.0 | 0.00 | 0.00 | 0.00 | 74 | 1019.8 |
| 20260507162402 | 13 | 47 | 6.4 | 6.4 | 0.00 | 0.00 | 0.00 | 74 | 1019.7 |
| 20260507161932 | 13 | 63 | 3.2 | 6.4 | 0.00 | 0.00 | 0.00 | 74 | 1019.7 |
| 20260507161402 | 13 | 170 | 4.8 | 8.0 | 0.00 | 0.00 | 0.00 | 73 | 1019.7 |
| 20260507160902 | 14 | 97 | 3.2 | 8.0 | 0.00 | 0.00 | 0.00 | 73 | 1019.8 |
| 20260507160432 | 14 | 321 | 0.0 | 4.8 | 0.00 | 0.00 | 0.00 | 75 | 1019.8 |
| 20260507155932 | 13 | 317 | 0.0 | 6.4 | 0.00 | 0.00 | 0.00 | 78 | 1019.8 |
| 20260507155402 | 13 | 44 | 0.0 | 6.4 | 0.00 | 0.00 | 0.00 | 78 | 1019.9 |
| 20260507153402 | 12 | 360 | 4.8 | 6.4 | 0.00 | 0.00 | 0.00 | 79 | 1020.0 |
| 20260507152902 | 12 | 360 | 1.6 | 6.4 | 0.00 | 0.00 | 0.00 | 80 | 1020.0 |
| 20260507151902 | 12 | 360 | 0.0 | 6.4 | 0.00 | 0.00 | 0.00 | 80 | 1020.0 |
| 20260507151402 | 12 | 360 | 1.6 | 6.4 | 0.00 | 0.00 | 0.00 | 81 | 1020.0 |
| 20260507150931 | 12 | 360 | 1.6 | 3.2 | 0.00 | 0.00 | 0.00 | 82 | 1020.0 |
| 20260507150402 | 12 | 360 | 0.0 | 3.2 | 0.00 | 0.00 | 0.00 | 82 | 1020.0 |
| 20260507145902 | 12 | 360 | 0.0 | 3.2 | 0.00 | 0.00 | 0.00 | 82 | 1020.0 |
| 20260507145431 | 12 | 360 | 0.0 | 3.2 | 0.00 | 0.00 | 0.00 | 82 | 1019.9 |
| 20260507143902 | 12 | 360 | 0.0 | 0.0 | 0.00 | 0.00 | 0.00 | 84 | 1019.9 |
| 20260507142431 | 12 | 360 | 0.0 | 0.0 | 0.00 | 0.00 | 0.00 | 86 | 1019.8 |
| 20260507141931 | 11 | 360 | 0.0 | 0.0 | 0.00 | 0.00 | 0.00 | 86 | 1019.8 |
| 20260507141401 | 11 | 360 | 0.0 | 0.0 | 0.00 | 0.00 | 0.00 | 86 | 1019.8 |
| 20260507140931 | 11 | 360 | 0.0 | 0.0 | 0.00 | 0.00 | 0.00 | 86 | 1019.7 |
| 20260507140431 | 11 | 360 | 0.0 | 0.0 | 0.00 | 0.00 | 0.00 | 87 | 1019.7 |
| 20260507135902 | 11 | 360 | 0.0 | 0.0 | 0.00 | 0.00 | 0.00 | 87 | 1019.7 |
| 20260507135402 | 11 | 360 | 0.0 | 0.0 | 0.00 | 0.00 | 0.00 | 87 | 1019.6 |
| 20260507134901 | 11 | 360 | 0.0 | 0.0 | 0.00 | 0.00 | 0.00 | 88 | 1019.6 |
| 20260507134431 | 11 | 360 | 0.0 | 0.0 | 0.00 | 0.00 | 0.00 | 88 | 1019.6 |
| 20260507133901 | 11 | 360 | 0.0 | 0.0 | 0.00 | 0.00 | 0.00 | 87 | 1019.6 |
| 20260507133402 | 11 | 360 | 0.0 | 0.0 | 0.00 | 0.00 | 0.00 | 88 | 1019.6 |
| 20260507132901 | 11 | 360 | 0.0 | 0.0 | 0.00 | 0.00 | 0.00 | 88 | 1019.6 |
| 20260507132401 | 11 | 360 | 0.0 | 0.0 | 0.00 | 0.00 | 0.00 | 88 | 1019.6 |
| 20260507131931 | 11 | 360 | 0.0 | 0.0 | 0.00 | 0.00 | 0.00 | 88 | 1019.6 |
| 20260507131401 | 11 | 360 | 0.0 | 0.0 | 0.00 | 0.00 | 0.00 | 88 | 1019.6 |
| 20260507130431 | 11 | 360 | 0.0 | 0.0 | 0.00 | 0.00 | 0.00 | 88 | 1019.7 |
| 20260507125901 | 11 | 360 | 0.0 | 0.0 | 0.00 | 0.00 | 0.00 | 88 | 1019.7 |
| 20260507124901 | 11 | 360 | 0.0 | 0.0 | 0.00 | 0.00 | 0.00 | 88 | 1019.7 |
| 20260507124402 | 11 | 360 | 0.0 | 0.0 | 0.00 | 0.00 | 0.00 | 88 | 1019.7 |
| 20260507123901 | 11 | 360 | 0.0 | 0.0 | 0.00 | 0.00 | 0.00 | 88 | 1019.8 |
| 20260507123401 | 11 | 360 | 0.0 | 0.0 | 0.00 | 0.00 | 0.00 | 88 | 1019.8 |
| 20260507122931 | 11 | 360 | 0.0 | 0.0 | 0.00 | 0.00 | 0.00 | 88 | 1019.8 |
| 20260507122431 | 11 | 360 | 0.0 | 0.0 | 0.00 | 0.00 | 0.00 | 88 | 1019.8 |
| 20260507121901 | 11 | 360 | 0.0 | 0.0 | 0.00 | 0.00 | 0.00 | 88 | 1019.8 |
| 20260507121401 | 11 | 360 | 0.0 | 0.0 | 0.00 | 0.00 | 0.00 | 88 | 1019.8 |
| 20260507120901 | 11 | 360 | 0.0 | 0.0 | 0.00 | 0.00 | 0.00 | 88 | 1020.0 |
| 20260507120401 | 11 | 360 | 0.0 | 0.0 | 0.00 | 0.00 | 0.00 | 88 | 1020.0 |
| 20260507115901 | 11 | 360 | 0.0 | 0.0 | 0.00 | 0.00 | 0.00 | 88 | 1020.0 |
| 20260507114901 | 11 | 360 | 0.0 | 0.0 | 0.00 | 0.00 | 0.00 | 87 | 1020.1 |
| 20260507114401 | 11 | 360 | 0.0 | 0.0 | 0.00 | 0.00 | 0.00 | 87 | 1020.1 |
| 20260507113431 | 11 | 360 | 0.0 | 0.0 | 0.00 | 0.00 | 0.00 | 88 | 1020.2 |
| 20260507112931 | 11 | 360 | 0.0 | 0.0 | 0.00 | 0.00 | 0.00 | 88 | 1020.2 |
| 20260507112401 | 11 | 360 | 0.0 | 0.0 | 0.00 | 0.00 | 0.00 | 88 | 1020.1 |
| 20260507111901 | 11 | 360 | 0.0 | 0.0 | 0.00 | 0.00 | 0.00 | 88 | 1020.1 |
| 20260507111401 | 11 | 360 | 0.0 | 0.0 | 0.00 | 0.00 | 0.00 | 88 | 1020.1 |
| 20260507110901 | 11 | 360 | 0.0 | 0.0 | 0.00 | 0.00 | 0.00 | 88 | 1020.3 |
| 20260507110401 | 11 | 360 | 0.0 | 0.0 | 0.00 | 0.00 | 0.00 | 88 | 1020.3 |
| 20260507104901 | 11 | 360 | 0.0 | 0.0 | 0.00 | 0.00 | 0.00 | 87 | 1020.3 |
| 20260507104431 | 11 | 360 | 0.0 | 0.0 | 0.00 | 0.00 | 0.00 | 87 | 1020.3 |
| 20260507103931 | 11 | 360 | 0.0 | 0.0 | 0.00 | 0.00 | 0.00 | 87 | 1020.4 |
| 20260507102431 | 11 | 360 | 0.0 | 0.0 | 0.00 | 0.00 | 0.00 | 88 | 1020.4 |
| 20260507101931 | 11 | 360 | 0.0 | 0.0 | 0.00 | 0.00 | 0.00 | 88 | 1020.4 |
| 20260507101401 | 11 | 360 | 0.0 | 0.0 | 0.00 | 0.00 | 0.00 | 88 | 1020.4 |
| 20260507100901 | 11 | 360 | 0.0 | 0.0 | 0.00 | 0.00 | 0.00 | 88 | 1020.5 |
| 20260507100401 | 11 | 360 | 0.0 | 0.0 | 0.00 | 0.00 | 0.00 | 88 | 1020.5 |
| 20260507095901 | 11 | 360 | 0.0 | 0.0 | 0.00 | 0.00 | 0.00 | 88 | 1020.5 |
| 20260507095402 | 11 | 360 | 0.0 | 0.0 | 0.00 | 0.00 | 0.00 | 88 | 1020.6 |
| 20260507094931 | 11 | 360 | 0.0 | 0.0 | 0.00 | 0.00 | 0.00 | 88 | 1020.6 |
| 20260507094401 | 11 | 360 | 0.0 | 0.0 | 0.00 | 0.00 | 0.00 | 89 | 1020.6 |
| 20260507093931 | 11 | 360 | 0.0 | 0.0 | 0.00 | 0.00 | 0.00 | 89 | 1020.7 |
| 20260507093401 | 11 | 360 | 0.0 | 0.0 | 0.00 | 0.00 | 0.00 | 89 | 1020.7 |
| 20260507092901 | 11 | 360 | 0.0 | 0.0 | 0.00 | 0.00 | 0.00 | 89 | 1020.7 |
| 20260507091401 | 11 | 235 | 0.0 | 0.0 | 0.00 | 0.00 | 0.00 | 89 | 1020.9 |
| 20260507090931 | 11 | 360 | 0.0 | 0.0 | 0.00 | 0.00 | 0.00 | 90 | 1020.9 |
| 20260507090401 | 11 | 360 | 0.0 | 0.0 | 0.00 | 0.00 | 0.00 | 90 | 1020.9 |
| 20260507085901 | 11 | 360 | 0.0 | 0.0 | 0.00 | 0.00 | 0.00 | 90 | 1020.9 |
| 20260507085401 | 11 | 236 | 0.0 | 0.0 | 0.00 | 0.00 | 0.00 | 90 | 1020.9 |
| 20260507084401 | 11 | 360 | 0.0 | 0.0 | 0.00 | 0.00 | 0.00 | 89 | 1020.9 |
| 20260507083931 | 11 | 360 | 0.0 | 0.0 | 0.00 | 0.00 | 0.00 | 89 | 1020.9 |
| 20260507083401 | 11 | 360 | 0.0 | 0.0 | 0.00 | 0.00 | 0.00 | 89 | 1020.9 |
| 20260507082901 | 11 | 360 | 0.0 | 0.0 | 0.00 | 0.00 | 0.00 | 89 | 1020.9 |
| 20260507082400 | 11 | 360 | 0.0 | 0.0 | 0.00 | 0.00 | 0.00 | 89 | 1020.9 |
| 20260507081901 | 11 | 235 | 0.0 | 0.0 | 0.00 | 0.00 | 0.00 | 89 | 1020.9 |
| 20260507081400 | 11 | 360 | 0.0 | 0.0 | 0.00 | 0.00 | 0.00 | 89 | 1020.9 |
| 20260507075901 | 11 | 360 | 0.0 | 0.0 | 0.00 | 0.00 | 0.00 | 89 | 1020.9 |
| 20260507075400 | 11 | 360 | 0.0 | 0.0 | 0.00 | 0.00 | 0.00 | 89 | 1020.9 |
| 20260507074930 | 11 | 360 | 0.0 | 0.0 | 0.00 | 0.00 | 0.00 | 89 | 1020.9 |
| 20260507074401 | 11 | 360 | 0.0 | 0.0 | 0.00 | 0.00 | 0.00 | 89 | 1020.9 |
| 20260507073900 | 11 | 360 | 0.0 | 1.6 | 0.00 | 0.00 | 0.00 | 89 | 1020.9 |
| 20260507072900 | 11 | 360 | 0.0 | 0.0 | 0.00 | 0.00 | 0.00 | 89 | 1020.9 |
| 20260507071930 | 10 | 360 | 0.0 | 0.0 | 0.00 | 0.00 | 0.00 | 89 | 1020.8 |
| 20260507071400 | 10 | 360 | 0.0 | 0.0 | 0.00 | 0.00 | 0.00 | 89 | 1020.8 |
| 20260507070930 | 10 | 236 | 0.0 | 0.0 | 0.00 | 0.00 | 0.00 | 89 | 1020.7 |
| 20260507070400 | 10 | 236 | 0.0 | 0.0 | 0.00 | 0.00 | 0.00 | 88 | 1020.7 |
| 20260507065930 | 10 | 236 | 0.0 | 0.0 | 0.00 | 0.00 | 0.00 | 88 | 1020.7 |
| 20260507065431 | 10 | 236 | 0.0 | 0.0 | 0.00 | 0.00 | 0.00 | 88 | 1020.7 |
| 20260507064430 | 10 | 236 | 0.0 | 0.0 | 0.00 | 0.00 | 0.00 | 87 | 1020.7 |
| 20260507063931 | 10 | 235 | 0.0 | 0.0 | 0.00 | 0.00 | 0.00 | 87 | 1020.7 |
| 20260507063430 | 10 | 235 | 0.0 | 0.0 | 0.00 | 0.00 | 0.00 | 87 | 1020.7 |
| 20260507062900 | 10 | 235 | 0.0 | 0.0 | 0.00 | 0.00 | 0.00 | 86 | 1020.7 |
| 20260507062400 | 10 | 235 | 0.0 | 0.0 | 0.00 | 0.00 | 0.00 | 86 | 1020.7 |
| 20260507061931 | 10 | 235 | 0.0 | 0.0 | 0.00 | 0.00 | 0.00 | 86 | 1020.7 |
| 20260507061400 | 10 | 235 | 0.0 | 0.0 | 0.00 | 0.00 | 0.00 | 85 | 1020.7 |
| 20260507060400 | 10 | 235 | 0.0 | 0.0 | 0.00 | 0.00 | 0.00 | 84 | 1020.7 |
| 20260507055900 | 10 | 235 | 0.0 | 1.6 | 0.00 | 0.00 | 0.00 | 84 | 1020.7 |
| 20260507055430 | 11 | 235 | 0.0 | 1.6 | 0.00 | 0.00 | 0.00 | 83 | 1020.6 |
| 20260507054900 | 11 | 234 | 1.6 | 1.6 | 0.00 | 0.00 | 0.00 | 83 | 1020.6 |
| 20260507054430 | 11 | 234 | 0.0 | 0.0 | 0.00 | 0.00 | 0.00 | 83 | 1020.6 |
| 20260507053930 | 11 | 235 | 0.0 | 0.0 | 0.00 | 0.00 | 0.00 | 83 | 1020.6 |
| 20260507053400 | 11 | 360 | 0.0 | 0.0 | 0.00 | 0.00 | 0.00 | 82 | 1020.6 |
| 20260507052930 | 11 | 360 | 0.0 | 0.0 | 0.00 | 0.00 | 0.00 | 82 | 1020.6 |
| 20260507052430 | 11 | 360 | 0.0 | 0.0 | 0.00 | 0.00 | 0.00 | 82 | 1020.5 |
| 20260507051400 | 11 | 360 | 0.0 | 0.0 | 0.00 | 0.00 | 0.00 | 82 | 1020.5 |
| 20260507050900 | 11 | 235 | 0.0 | 3.2 | 0.00 | 0.00 | 0.00 | 82 | 1020.4 |
| 20260507045900 | 11 | 360 | 0.0 | 3.2 | 0.00 | 0.00 | 0.00 | 82 | 1020.4 |
| 20260507044930 | 11 | 360 | 0.0 | 1.6 | 0.00 | 0.00 | 0.00 | 82 | 1020.3 |
| 20260507043930 | 12 | 360 | 0.0 | 4.8 | 0.00 | 0.00 | 0.00 | 81 | 1020.3 |
| 20260507043400 | 12 | 360 | 0.0 | 4.8 | 0.00 | 0.00 | 0.00 | 81 | 1020.3 |
| 20260507042430 | 12 | 360 | 0.0 | 1.6 | 0.00 | 0.00 | 0.00 | 81 | 1020.2 |
| 20260507041930 | 12 | 360 | 0.0 | 1.6 | 0.00 | 0.00 | 0.00 | 80 | 1020.2 |
| 20260507041430 | 12 | 360 | 0.0 | 1.6 | 0.00 | 0.00 | 0.00 | 80 | 1020.2 |
| 20260507040930 | 12 | 360 | 0.0 | 1.6 | 0.00 | 0.00 | 0.00 | 80 | 1019.9 |
| 20260507040430 | 12 | 360 | 0.0 | 0.0 | 0.00 | 0.00 | 0.00 | 79 | 1019.9 |
| 20260507035930 | 12 | 360 | 0.0 | 0.0 | 0.00 | 0.00 | 0.00 | 79 | 1019.9 |
| 20260507035400 | 12 | 360 | 0.0 | 1.6 | 0.00 | 0.00 | 0.00 | 79 | 1019.8 |
| 20260507034900 | 12 | 360 | 0.0 | 1.6 | 0.00 | 0.00 | 0.00 | 78 | 1019.8 |
| 20260507034430 | 12 | 360 | 0.0 | 1.6 | 0.00 | 0.00 | 0.00 | 78 | 1019.8 |
| 20260507033900 | 13 | 360 | 0.0 | 0.0 | 0.00 | 0.00 | 0.00 | 78 | 1019.7 |
| 20260507032930 | 13 | 250 | 0.0 | 3.2 | 0.00 | 0.00 | 0.00 | 77 | 1019.7 |
| 20260507032430 | 13 | 250 | 0.0 | 3.2 | 0.00 | 0.00 | 0.00 | 77 | 1019.6 |
| 20260507031930 | 13 | 73 | 0.0 | 0.0 | 0.00 | 0.00 | 0.00 | 77 | 1019.6 |
| 20260507031430 | 13 | 71 | 0.0 | 0.0 | 0.00 | 0.00 | 0.00 | 76 | 1019.6 |
| 20260507030930 | 13 | 71 | 0.0 | 1.6 | 0.00 | 0.00 | 0.00 | 76 | 1019.5 |
| 20260507030400 | 13 | 70 | 0.0 | 1.6 | 0.00 | 0.00 | 0.00 | 76 | 1019.5 |